Regional Weather Roundup
Issued by NWS

Home | Current Version | Previous Version | Text Only | Print | Product List | Glossary Off
Versions: 1 2 3 4 5 6 7 8 9 10 11 12 13 14 15 16 17 18 19 20 21 22 23 24 25 26 27 28 29 30 31 32 33 34 35 36 37 38 39 40 41 42 43 44 45 46 47 48 49 50

000
ASUS43 KDMX 161106
RWRIA

WEATHER ROUNDUP FOR IOWA
NATIONAL WEATHER SERVICE DES MOINES IA
600 AM CDT MON OCT 16 2017

NOTE: "FAIR" INDICATES FEW OR NO CLOUDS BELOW 12,000 FEET WITH NO
SIGNIFICANT WEATHER AND/OR OBSTRUCTIONS TO VISIBILITY.

* - THESE STATIONS ARE NOT NWS STATIONS...THUS NOT UNDER NWS
QUALITY CONTROL.  THEY ALSO DO NOT REPORT WEATHER SUCH
AS PRECIPITATION OR FOG.

IAZ001>003-012>014-020>022-031>034-043>046-161200-
   NORTHWEST IOWA

CITY           SKY/WX    TMP DP  RH WIND       PRES   REMARKS
CARROLL *      CLEAR     43  39  87 W5        30.31S
CHEROKEE *     CLEAR     33  33 100 CALM      30.30S
DENISON *      CLEAR     34  32  93 CALM      30.33S
LE MARS *      CLEAR     32  32 100 CALM      30.30R
ORANGE CITY *  CLEAR     36  34  93 S3        30.29S
SHELDON *        N/A     30  28  93 E3        30.27F
SIOUX CITY     CLEAR     34  34 100 SE3       30.31R
SPENCER        CLEAR     31  29  92 SW3       30.28F
STORM LAKE *   CLEAR     37  34  87 SW9       30.30R WCI  31
$$

IAZ055>058-069>071-079>083-090>094-161200-
   SOUTHWEST IOWA

CITY           SKY/WX    TMP DP  RH WIND       PRES   REMARKS
ATLANTIC *       N/A     34  34 100 CALM      30.33S
AUDUBON *      CLEAR     32  30  93 CALM      30.33S
CLARINDA *     PTCLDY    34  34 100 CALM      30.37S
COUNCIL BLFS * CLEAR     43  39  87 SW5       30.32S
CRESTON *      CLEAR     39  34  81 W6        30.34S WCI  35
HARLAN  *      CLEAR     32  32 100 CALM      30.35S
LAMONI         CLEAR     42  34  73 W6        30.33S
RED OAK *      CLEAR     36  36 100 CALM      30.34S
SHENANDOAH *   CLEAR     34  34 100 CALM      30.35S
$$

IAZ047>049-059>061-072>074-084-161200-
   CENTRAL IOWA

CITY           SKY/WX    TMP DP  RH WIND       PRES   REMARKS
AMES           CLEAR     34  34 100 CALM      30.32R
ANKENY *       CLEAR     36  36 100 CALM      30.33R
BOONE *        CLEAR     39  34  81 W7        30.30R WCI  34
CHARITON *     CLEAR     39  34  81 W6        30.32R WCI  35
DES MOINES     CLEAR     40  34  79 W6        30.32R
GRINNELL*      CLEAR     37  34  89 W3        30.31S
KNOXVILLE *    CLEAR     39  34  81 SW6       30.31R WCI  35
MARSHALLTOWN   CLEAR     36  33  89 CALM      30.30R
NEWTON *       CLEAR     37  36  93 W3        30.31S
PELLA *        CLEAR     42  36  79 W7        30.33R
PERRY *          N/A     37  35  95 W7        30.32R WCI  31
$$

IAZ004>006-015-016-023>025-035-036-161200-
   NORTH CENTRAL IOWA

CITY           SKY/WX    TMP DP  RH WIND       PRES   REMARKS
ALGONA *       CLEAR     36  36 100 W3        30.28R
CLARION *      CLEAR     32  32 100 S5        30.29S WCI  27
ESTHERVILLE    CLEAR     33  32  96 SW6       30.26F WCI  28
FORT DODGE *   CLEAR     36  34  92 CALM      30.30R
MASON CITY     CLEAR     32  30  92 CALM      30.29S
FOREST CITY *    N/A     32  32 100 CALM      30.27S
WEBSTER CITY * CLEAR     34  32  93 SW5       30.28S WCI  30
IOWA FALLS *     N/A     37  33  87 W5        30.30R WCI  33
$$

IAZ007>011-017>019-026>030-037>042-050>054-066-161200-
   NORTHEAST IOWA

CITY           SKY/WX    TMP DP  RH WIND       PRES   REMARKS
CEDAR RAPIDS   CLEAR     37  33  85 CALM      30.29R
CHARLES CITY * CLEAR     34  34 100 SW3       30.28S
CLINTON *      CLEAR     36  36 100 SW6       30.30S WCI  31
DECORAH *      CLEAR     37  36  93 SW5       30.26R WCI  34
DUBUQUE        CLEAR     37  34  89 SW3       30.28R
MONTICELLO *   CLEAR     34  32  93 CALM      30.29R
OELWEIN *      CLEAR     37  36  93 W6        30.29R WCI  33
WATERLOO       CLEAR     33  31  92 CALM      30.29R
$$

IAZ064-065-067-068-078-161200-
   EAST CENTRAL IOWA

CITY           SKY/WX    TMP DP  RH WIND       PRES   REMARKS
DAVENPORT      CLEAR     37  36  96 SW3       30.31S
IOWA CITY      CLEAR     36  33  89 CALM      30.32R
MUSCATINE *    CLEAR     39  36  87 SW3       30.31S
QUAD CITIES    CLEAR     41  37  86 SW3       30.30S
$$

IAZ062-063-075>077-085>089-095>099-161200-
   SOUTHEAST IOWA

CITY           SKY/WX    TMP DP  RH WIND       PRES   REMARKS
BURLINGTON     CLEAR     40  39  97 SW6       30.31S
FAIRFIELD *    CLEAR     39  34  81 SW7       30.31R WCI  34
FORT MADISON * CLEAR     39  37  93 SW3       30.33S
KEOKUK *       CLEAR     39  37  93 SW6       30.33R WCI  35
OSKALOOSA *      N/A     36  33  90 W6        30.32R WCI  31
OTTUMWA        CLEAR     38  34  85 W6        30.32R WCI  33
WASHINGTON *   CLEAR     37  37 100 W6        30.32R WCI  33
$$

ABBREVIATIONS USED IN REMARKS
   TC - TEMPERATURES IN CELSIUS
  WCI - WIND CHILL INDEX
   HX - HEAT INDEX
  VSB - VISIBILITY
$$





USA.gov is the U.S. government's official web portal to all federal, state and local government web resources and services.